您当前的位置:网站首页 > 域名竞价

域名类型:
后缀:
长度:

排序:

关键字:

查询结果(1483导出查询结果
序号 域名 当前价格 拍卖平台 长度 剩余时间 结束时间 我要出价
1231 bomv.com $150 Namejet 4 2天4小时 2017-12-21 04:47:00 出价
1232 bkte.com $140 Namejet 4 2天4小时 2017-12-21 04:48:00 出价
1233 qinv.com $101 Namejet 4 2天4小时 2017-12-21 04:49:00 出价
1234 neuy.com $140 Namejet 4 2天4小时 2017-12-21 04:49:00 出价
1235 namk.com $150 Namejet 4 2天4小时 2017-12-21 04:51:00 出价
1236 naLh.com $320 Namejet 4 2天4小时 2017-12-21 04:52:00 出价
1237 watchdragonbaLLsuper.tv $69 Namejet 20 2天4小时 2017-12-21 04:53:00 出价
1238 zuLz.com $190 Namejet 4 2天4小时 2017-12-21 04:54:00 出价
1239 bhdu.com $190 Namejet 4 2天4小时 2017-12-21 04:54:00 出价
1240 yuzb.com $142 Namejet 4 2天4小时 2017-12-21 04:55:00 出价
1241 bgca.com $260 Namejet 4 2天4小时 2017-12-21 04:55:00 出价
1242 yumu.net $59 Namejet 4 2天4小时 2017-12-21 04:56:00 出价
1243 m9y.com $61 Namejet 3 2天4小时 2017-12-21 04:56:00 出价
1244 bfto.com $190 Namejet 4 2天4小时 2017-12-21 04:56:00 出价
1245 yevw.com $142 Namejet 4 2天4小时 2017-12-21 04:57:00 出价
1246 yamq.com $150 Namejet 4 2天4小时 2017-12-21 04:58:00 出价
1247 Ltew.com $145 Namejet 4 2天4小时 2017-12-21 04:58:00 出价
1248 xrnh.com $59 Namejet 4 2天4小时 2017-12-21 04:59:00 出价
1249 Lror.com $190 Namejet 4 2天4小时 2017-12-21 04:59:00 出价
1250 b9m.com $75 Namejet 3 2天4小时 2017-12-21 04:59:00 出价
1251 Lovenew.com $60 Namejet 7 2天4小时 2017-12-21 05:00:00 出价
1252 apud.com $290 Namejet 4 2天4小时 2017-12-21 05:01:00 出价
1253 Lizf.com $69 Namejet 4 2天4小时 2017-12-21 05:02:00 出价
1254 Lij.net $109 Namejet 3 2天4小时 2017-12-21 05:03:00 出价
1255 aogb.com $250 Namejet 4 2天4小时 2017-12-21 05:03:00 出价
1256 kuada.com $509 Namejet 5 2天4小时 2017-12-21 05:05:00 出价
1257 xb2.com $75 Namejet 3 2天4小时 2017-12-21 05:06:00 出价
1258 kineticgroup.com $101 Namejet 12 2天4小时 2017-12-21 05:06:00 出价
1259 wxty.com $89 Namejet 4 2天4小时 2017-12-21 05:07:00 出价
1260 kamw.com $150 Namejet 4 2天4小时 2017-12-21 05:07:00 出价
1... 37 38 39 40 41 42 43 44 45 46 47 50 共 1483 条记录